Location: Laura�t
(43.9341°N, 0.2497°E)
Time: 10:02:01
(UTC+00:00)

MetOp-A - Pass Details

Date: 03 March 2021
Orbit: 819 x 821 km, 98.5° (Epoch: 18 April)

Event Time Altitude Azimuth Distance (km) Brightness Sun altitude
Exits shadow 19:27:04 - 157° (SSE) 2,486 6.3 -18.2°
Reaches altitude 10° 19:27:15 10° 157° (SSE) 2,412 6.3 -18.2°
Maximum altitude 19:32:35 73° 73° (ENE) 862 4.0 -19.2°
Drops below altitude 10° 19:37:56 10° 350° (N) 2,429 6.8 -20.1°
Sets 19:40:18 0° 349° (N) 3,366 7.6 -20.5°
